Content
SEND FEEDBACK

Daily
Averages
Monthly
Summary
United States of America

FAYETTEVILLE, TENNESSEE


Home > North America > United States > Tennessee
Elevation: 213 meters     Latitude: 35 10N     Longitude: 086 33W

WEATHER
 
SELECT A DAY
Number of Records: 307,919;   Date Range: 4/22/02 - 11/26/14
 
SHARE

PRINT THIS DATA

[ ← Previous Day ]
WEATHER ALMANAC - 2 JULY, 2014
[ Next Day → ]
[ °F ]   °C
Weather ElementAverageHighLow
Temperature25.7 °C32 °C (3:35 pm)20 °C (3:35 am)
Dewpoint17.2 °C19 °C (8:55 pm)16 °C (12:35 pm)
Humidity61.4 %88 % (6:35 am)38 % (3:35 pm)
Barometer1015.9 hPa1017.3 hPa (11:35 pm)1014.2 hPa (2:55 am)
Wind Speed4.7 km/h16.7 km/h (2:55 pm)
Weather ElementAverage
Visibility16.1 km
Wind DirectionSSE (154.7 °)

Weather ElementTotal
Precipitation---
Cooling Degree Days7.7 (Base 18.3)
Growing Degree Days16 (Base 10)
Averaged from 68 records on 2 July, 2014
WEATHER CONDITIONS BREAKOUT
WIND DIRECTION BREAKOUT
WEATHER BY HOUR - 2 JULY, 2014
[ °F ]   °C
Local TimeTemperatureDewpointHumidityBarometerVisibilityWind DirectionWind SpeedGust SpeedPrecipitationEventsConditions
12:35 AM24 °C18 °C69 %1015.9 hPa16.1 kmCalmClear
12:55 AM23 °C18 °C73 %1015.6 hPa16.1 kmCalmClear
1:20 AM22 °C18 °C78 %1015.6 hPa16.1 kmCalmClear
1:35 AM22 °C18 °C78 %1015.2 hPa16.1 kmCalmClear
1:55 AM22 °C17 °C73 %1014.9 hPa16.1 kmCalmClear
2:15 AM21 °C17 °C78 %1014.9 hPa16.1 kmWest (270°)7.4 km/hClear
2:35 AM21 °C18 °C83 %1014.6 hPa16.1 kmSSW (210°)5.6 km/hClear
2:55 AM21 °C17 °C78 %1014.2 hPa16.1 kmCalmClear
3:15 AM21 °C17 °C78 %1014.6 hPa16.1 kmCalmClear
3:35 AM20 °C17 °C83 %1015.2 hPa16.1 kmCalmClear
3:55 AM20 °C17 °C83 %1015.6 hPa16.1 kmCalmClear
4:15 AM20 °C17 °C83 %1015.9 hPa16.1 kmWNW (290°)11.1 km/hClear
4:35 AM21 °C18 °C83 %1016.3 hPa16.1 kmWest (260°)5.6 km/hClear
4:55 AM21 °C17 °C78 %1016.3 hPa16.1 kmCalmClear
5:15 AM20 °C17 °C83 %1016.3 hPa16.1 kmCalmClear
5:35 AM20 °C17 °C83 %1015.9 hPa16.1 kmCalmClear
5:55 AM20 °C17 °C83 %1015.9 hPa11.3 kmCalmClear
6:15 AM20 °C17 °C83 %1016.3 hPa16.1 kmCalmClear
6:35 AM20 °C18 °C88 %1016.3 hPa16.1 kmCalmClear
6:55 AM21 °C18 °C83 %1016.3 hPa16.1 kmCalmClear
7:15 AM22 °C18 °C78 %1016.6 hPa16.1 kmCalmClear
7:35 AM22 °C18 °C78 %1016.3 hPa16.1 kmCalmClear
7:55 AM23 °C18 °C73 %1016.3 hPa16.1 kmCalmClear
8:15 AM24 °C17 °C65 %1016.3 hPa16.1 kmNW (310°)5.6 km/hClear
8:35 AM25 °C17 °C61 %1016.3 hPa16.1 kmWNW (290°)5.6 km/hClear
8:55 AM25 °C17 °C61 %1016.3 hPa16.1 kmCalmClear
9:15 AM26 °C17 °C57 %1015.9 hPa16.1 kmCalmClear
9:35 AM27 °C17 °C54 %1015.6 hPa16.1 kmCalmClear
9:55 AM27 °C17 °C54 %1015.9 hPa16.1 kmCalmClear
10:15 AM27 °C17 °C54 %1016.3 hPa16.1 kmNNW (340°)7.4 km/hClear
10:35 AM28 °C17 °C51 %1016.3 hPa16.1 kmCalmClear
10:55 AM28 °C18 °C54 %1016.3 hPa16.1 kmWNW (300°)9.3 km/hClear
11:15 AM29 °C17 °C48 %1016.3 hPa16.1 kmNorth (10°)7.4 km/hClear
11:35 AM29 °C17 °C48 %1016.3 hPa16.1 kmCalmClear
11:55 AM29 °C17 °C48 %1016.3 hPa16.1 kmNW (320°)9.3 km/hClear
12:15 PM30 °C17 °C45 %1016.3 hPa16.1 kmNW (320°)5.6 km/hClear
12:35 PM30 °C16 °C43 %1016.6 hPa16.1 kmSW (230°)7.4 km/hScattered Clouds
12:55 PM30 °C16 °C43 %1016.6 hPa16.1 kmWest (280°)9.3 km/hScattered Clouds
1:15 PM30 °C16 °C43 %1016.6 hPa16.1 kmWest (260°)7.4 km/hClear
1:35 PM30 °C16 °C43 %1016.6 hPa16.1 kmWest (280°)9.3 km/hScattered Clouds
1:55 PM31 °C16 °C40 %1016.6 hPa16.1 kmWNW (290°)11.1 km/hClear
2:15 PM31 °C16 °C40 %1016.6 hPa16.1 kmWest (260°)5.6 km/hScattered Clouds
2:35 PM31 °C16 °C40 %1016.6 hPa16.1 kmWNW (300°)11.1 km/hScattered Clouds
2:55 PM31 °C16 °C40 %1016.6 hPa16.1 kmWest (280°)16.7 km/hScattered Clouds
3:15 PM31 °C16 °C40 %1016.3 hPa16.1 kmWest (270°)13 km/hScattered Clouds
3:35 PM32 °C16 °C38 %1016.3 hPa16.1 kmWest (270°)11.1 km/hClear
3:55 PM32 °C16 °C38 %1015.9 hPa16.1 kmNW (310°)9.3 km/hClear
4:15 PM31 °C16 °C40 %1015.9 hPa16.1 kmNW (310°)9.3 km/hScattered Clouds
4:35 PM32 °C16 °C38 %1015.9 hPa16.1 kmWNW (290°)7.4 km/hScattered Clouds
5:55 PM31 °C16 °C40 %1015.6 hPa16.1 kmNW (310°)9.3 km/hClear
6:15 PM31 °C16 °C40 %1015.2 hPa16.1 kmWNW (300°)11.1 km/hClear
6:35 PM30 °C16 °C43 %1015.2 hPa16.1 kmWNW (300°)11.1 km/hClear
6:55 PM30 °C16 °C43 %1015.6 hPa16.1 kmWNW (290°)13 km/hClear
7:15 PM28 °C17 °C51 %1015.9 hPa16.1 kmNW (320°)9.3 km/hClear
7:35 PM27 °C18 °C58 %1015.9 hPa16.1 kmNW (320°)7.4 km/hClear
7:55 PM27 °C18 °C58 %1015.9 hPa16.1 kmNW (310°)5.6 km/hClear
8:15 PM26 °C18 °C61 %1015.9 hPa16.1 kmCalmClear
8:35 PM25 °C18 °C65 %1016.3 hPa16.1 kmWNW (290°)5.6 km/hClear
8:55 PM25 °C19 °C69 %1016.3 hPa16.1 kmCalmClear
9:15 PM26 °C18 °C61 %1016.6 hPa16.1 kmWest (260°)7.4 km/hClear
9:35 PM26 °C18 °C61 %1016.9 hPa16.1 kmWest (270°)5.6 km/hClear
9:55 PM25 °C18 °C65 %1016.6 hPa16.1 kmCalmClear
10:15 PM24 °C18 °C69 %1016.6 hPa16.1 kmCalmClear
10:35 PM25 °C18 °C65 %1016.6 hPa16.1 kmWest (260°)11.1 km/hClear
10:55 PM25 °C18 °C65 %1016.9 hPa16.1 kmWest (260°)5.6 km/hClear
11:15 PM24 °C18 °C69 %1016.9 hPa16.1 kmCalmClear
11:35 PM24 °C18 °C69 %1017.3 hPa16.1 kmSSW (210°)5.6 km/hClear
11:55 PM24 °C18 °C69 %1017.3 hPa16.1 kmWest (270°)5.6 km/hClear
Hourly data recorded from KMDQ, located 0 kilometers away from Fayetteville, Tennessee







STORIES FROM OUR PARTNERS